Location: Unspecified
(0.0000°N, 0.0000°E)
Time: 18:33:34
(UTC+00:00)

STARLINK 1011 - Pass Details

Date: 17 January 2020
Orbit: 434 x 435 km, 53.0° (Epoch: 18 January)

Event Time Altitude Azimuth Distance (km) Brightness Sun altitude
Rises 05:07:21 0° 200° (SSW) 2,402 6.9 -14.6°
Maximum altitude 05:12:44 33° 124° (SE) 739 5.0 -13.3°
Drops below altitude 10° 05:15:53 10° 58° (ENE) 1,526 6.4 -12.6°
Sets 05:18:06 0° 48° (NE) 2,390 7.3 -12.1°
